Find OneWeb SL0511

NORAD ID: 54129 Int'l Des: 2022-138 Owner: ONEWEBN Country: UK Constellation: oneweb operational
別名: ONEWEB-0511 spacetrack, celestrak
LEOCIRCULARPOLARONEWEB_TYPE

現在のビュー

3D地球を読み込み中...

About OneWeb SL0511

OneWeb SL0511 (NORAD 54129) is a oneweb constellation satellite launched Oct 22, 2022 by ONEWEBN of UK. It operates in LEO, CIRCULAR, POLAR, ONEWEB_TYPE orbit with a mass of 148.00 kg.

次回通過

Passes for default location (London). Set your location on the main map for personalized predictions.

高度履歴

Loading altitude history...

軌道要素

1 54129U 22138S 26238.59839487 -.00000027 00000-0 -99303-4 0 9990
2 54129 87.9137 290.9476 0002113 101.0216 259.1155 13.19726717186123
Epoch: Aug 26, 2026 • Age: 8 hours

現在のステータス

高度 1197.2 km
遠地点 / 近地点 N/A
速度 7.26 km/s
衛星直下点 76.17°N, 154.79°E
打ち上げ日 Oct 22, 2022
運用期間 3.8 years
タイプ internet

技術仕様

分類 Payload
質量 148.00 kg
乾燥質量 140.00 kg
総質量 148.00 kg
長さ 1.30 m
直径 1.00 m
スパン 5.00 m
形状 Trapezoid+2 pan
製造者 ONEWUS
バスタイプ ARROW
フェーズステータス In Orbit
所有者/国 ONEWEBN/UK

Most Searched